| time (UTC) | temp C | wind direction | speed KPH | gust KPH | rain 1hr cm | rain 24hr cm | rain mn cm | humidity % | barometer mb |
| 20260505210004 | 28 | 181 | 16.1 | 40.2 | 0.00 | 0.00 | 0.00 | 22 | 1003.5 |
| 20260505205503 | 28 | 178 | 9.7 | 40.2 | 0.00 | 0.00 | 0.00 | 22 | 1003.4 |
| 20260505205003 | 28 | 189 | 8.0 | 35.4 | 0.00 | 0.00 | 0.00 | 22 | 1003.4 |
| 20260505204503 | 28 | 188 | 12.9 | 35.4 | 0.00 | 0.00 | 0.00 | 22 | 1003.5 |
| 20260505204003 | 28 | 189 | 14.5 | 27.4 | 0.00 | 0.00 | 0.00 | 23 | 1003.4 |
| 20260505203503 | 28 | 188 | 16.1 | 30.6 | 0.00 | 0.00 | 0.00 | 22 | 1003.5 |
| 20260505203003 | 28 | 187 | 16.1 | 32.2 | 0.00 | 0.00 | 0.00 | 22 | 1003.5 |
| 20260505202503 | 28 | 186 | 16.1 | 32.2 | 0.00 | 0.00 | 0.00 | 22 | 1003.5 |
| 20260505202003 | 28 | 188 | 12.9 | 32.2 | 0.00 | 0.00 | 0.00 | 23 | 1003.6 |
| 20260505201503 | 28 | 185 | 16.1 | 40.2 | 0.00 | 0.00 | 0.00 | 23 | 1003.7 |
| 20260505201004 | 28 | 184 | 17.7 | 40.2 | 0.00 | 0.00 | 0.00 | 22 | 1003.6 |
| 20260505200503 | 28 | 190 | 11.3 | 40.2 | 0.00 | 0.00 | 0.00 | 21 | 1003.7 |
| 20260505200003 | 28 | 194 | 12.9 | 35.4 | 0.00 | 0.00 | 0.00 | 22 | 1003.7 |
| 20260505195503 | 28 | 197 | 11.3 | 35.4 | 0.00 | 0.00 | 0.00 | 23 | 1003.6 |
| 20260505195004 | 28 | 192 | 12.9 | 30.6 | 0.00 | 0.00 | 0.00 | 23 | 1003.8 |
| 20260505194503 | 28 | 188 | 16.1 | 35.4 | 0.00 | 0.00 | 0.00 | 24 | 1003.8 |
| 20260505194003 | 28 | 189 | 17.7 | 35.4 | 0.00 | 0.00 | 0.00 | 23 | 1004.0 |
| 20260505193503 | 28 | 190 | 16.1 | 35.4 | 0.00 | 0.00 | 0.00 | 22 | 1004.0 |
| 20260505193003 | 29 | 194 | 12.9 | 29.0 | 0.00 | 0.00 | 0.00 | 23 | 1004.0 |
| 20260505192504 | 28 | 191 | 14.5 | 33.8 | 0.00 | 0.00 | 0.00 | 24 | 1004.0 |
| 20260505192004 | 28 | 192 | 14.5 | 33.8 | 0.00 | 0.00 | 0.00 | 24 | 1004.2 |
| 20260505191503 | 29 | 198 | 12.9 | 27.4 | 0.00 | 0.00 | 0.00 | 22 | 1004.2 |
| 20260505191003 | 28 | 195 | 14.5 | 30.6 | 0.00 | 0.00 | 0.00 | 23 | 1004.3 |
| 20260505190503 | 28 | 189 | 19.3 | 38.6 | 0.00 | 0.00 | 0.00 | 22 | 1004.5 |
| 20260505190004 | 28 | 189 | 14.5 | 38.6 | 0.00 | 0.00 | 0.00 | 23 | 1004.4 |
| 20260505185504 | 29 | 191 | 14.5 | 40.2 | 0.00 | 0.00 | 0.00 | 24 | 1004.4 |
| 20260505185003 | 28 | 189 | 19.3 | 45.1 | 0.00 | 0.00 | 0.00 | 22 | 1004.6 |
| 20260505184503 | 28 | 189 | 16.1 | 45.1 | 0.00 | 0.00 | 0.00 | 23 | 1004.8 |
| 20260505184004 | 29 | 198 | 14.5 | 45.1 | 0.00 | 0.00 | 0.00 | 24 | 1004.9 |
| 20260505183503 | 29 | 204 | 12.9 | 33.8 | 0.00 | 0.00 | 0.00 | 25 | 1005.0 |
| 20260505183004 | 28 | 199 | 11.3 | 32.2 | 0.00 | 0.00 | 0.00 | 25 | 1004.8 |
| 20260505182503 | 28 | 187 | 11.3 | 29.0 | 0.00 | 0.00 | 0.00 | 26 | 1004.9 |
| 20260505182003 | 28 | 184 | 14.5 | 30.6 | 0.00 | 0.00 | 0.00 | 27 | 1004.8 |
| 20260505181503 | 28 | 182 | 12.9 | 33.8 | 0.00 | 0.00 | 0.00 | 26 | 1004.9 |
| 20260505181004 | 29 | 186 | 8.0 | 33.8 | 0.00 | 0.00 | 0.00 | 26 | 1005.0 |
| 20260505180504 | 29 | 219 | 9.7 | 25.7 | 0.00 | 0.00 | 0.00 | 26 | 1005.1 |
| 20260505180003 | 29 | 214 | 8.0 | 19.3 | 0.00 | 0.00 | 0.00 | 27 | 1005.1 |
| 20260505175503 | 28 | 205 | 6.4 | 27.4 | 0.00 | 0.00 | 0.00 | 28 | 1005.1 |
| 20260505175003 | 28 | 201 | 9.7 | 32.2 | 0.00 | 0.00 | 0.00 | 27 | 1005.1 |
| 20260505174503 | 28 | 188 | 11.3 | 32.2 | 0.00 | 0.00 | 0.00 | 28 | 1005.2 |
| 20260505174003 | 28 | 186 | 12.9 | 32.2 | 0.00 | 0.00 | 0.00 | 28 | 1005.3 |
| 20260505173503 | 28 | 186 | 12.9 | 32.2 | 0.00 | 0.00 | 0.00 | 27 | 1005.5 |
| 20260505173004 | 28 | 187 | 9.7 | 22.5 | 0.00 | 0.00 | 0.00 | 28 | 1005.6 |
| 20260505172504 | 28 | 186 | 11.3 | 27.4 | 0.00 | 0.00 | 0.00 | 29 | 1005.6 |
| 20260505172003 | 28 | 181 | 9.7 | 30.6 | 0.00 | 0.00 | 0.00 | 30 | 1005.6 |
| 20260505171503 | 28 | 191 | 8.0 | 30.6 | 0.00 | 0.00 | 0.00 | 30 | 1005.6 |
| 20260505171004 | 27 | 204 | 8.0 | 20.9 | 0.00 | 0.00 | 0.00 | 31 | 1005.7 |
| 20260505170504 | 27 | 204 | 8.0 | 20.9 | 0.00 | 0.00 | 0.00 | 33 | 1005.7 |
| 20260505170003 | 27 | 183 | 11.3 | 35.4 | 0.00 | 0.00 | 0.00 | 33 | 1006.0 |
| 20260505165503 | 27 | 186 | 9.7 | 35.4 | 0.00 | 0.00 | 0.00 | 32 | 1006.0 |
| 20260505165003 | 27 | 188 | 9.7 | 32.2 | 0.00 | 0.00 | 0.00 | 32 | 1006.1 |
| 20260505164504 | 27 | 187 | 9.7 | 32.2 | 0.00 | 0.00 | 0.00 | 33 | 1006.1 |
| 20260505164004 | 27 | 196 | 8.0 | 25.7 | 0.00 | 0.00 | 0.00 | 32 | 1006.1 |
| 20260505163503 | 27 | 184 | 8.0 | 20.9 | 0.00 | 0.00 | 0.00 | 32 | 1006.2 |
| 20260505163003 | 27 | 203 | 6.4 | 20.9 | 0.00 | 0.00 | 0.00 | 32 | 1006.3 |
| 20260505162503 | 27 | 230 | 6.4 | 17.7 | 0.00 | 0.00 | 0.00 | 33 | 1006.3 |
| 20260505162004 | 27 | 216 | 8.0 | 19.3 | 0.00 | 0.00 | 0.00 | 33 | 1006.5 |
| 20260505161503 | 26 | 214 | 8.0 | 22.5 | 0.00 | 0.00 | 0.00 | 34 | 1006.5 |
| 20260505161003 | 26 | 196 | 4.8 | 22.5 | 0.00 | 0.00 | 0.00 | 35 | 1006.6 |
| 20260505160503 | 26 | 198 | 4.8 | 16.1 | 0.00 | 0.00 | 0.00 | 36 | 1006.6 |
| 20260505153003 | 25 | 186 | 8.0 | 20.9 | 0.00 | 0.00 | 0.00 | 39 | 1007.2 |
| 20260505152503 | 25 | 181 | 8.0 | 20.9 | 0.00 | 0.00 | 0.00 | 39 | 1007.2 |
| 20260505152004 | 25 | 191 | 6.4 | 19.3 | 0.00 | 0.00 | 0.00 | 38 | 1007.2 |
| 20260505151504 | 25 | 249 | 6.4 | 16.1 | 0.00 | 0.00 | 0.00 | 37 | 1007.2 |
| 20260505151003 | 25 | 270 | 4.8 | 16.1 | 0.00 | 0.00 | 0.00 | 39 | 1007.2 |
| 20260505150503 | 25 | 258 | 4.8 | 16.1 | 0.00 | 0.00 | 0.00 | 39 | 1007.3 |
| 20260505140504 | 22 | 193 | 4.8 | 11.3 | 0.00 | 0.00 | 0.00 | 46 | 1007.8 |
| 20260505125003 | 18 | 175 | 3.2 | 12.9 | 0.00 | 0.00 | 0.00 | 62 | 1007.5 |
| 20260505124503 | 17 | 189 | 3.2 | 9.7 | 0.00 | 0.00 | 0.00 | 64 | 1007.6 |
| 20260505124003 | 17 | 192 | 3.2 | 9.7 | 0.00 | 0.00 | 0.00 | 65 | 1007.6 |
| 20260505123503 | 17 | 185 | 3.2 | 14.5 | 0.00 | 0.00 | 0.00 | 68 | 1007.6 |
| 20260505123003 | 16 | 170 | 4.8 | 14.5 | 0.00 | 0.00 | 0.00 | 69 | 1007.7 |
| 20260505122504 | 16 | 141 | 1.6 | 9.7 | 0.00 | 0.00 | 0.00 | 72 | 1007.7 |
| 20260505122003 | 15 | 149 | 1.6 | 4.8 | 0.00 | 0.00 | 0.00 | 74 | 1007.7 |
| 20260505121504 | 15 | 176 | 1.6 | 4.8 | 0.00 | 0.00 | 0.00 | 75 | 1007.9 |
| 20260505121004 | 15 | 177 | 0.0 | 4.8 | 0.00 | 0.00 | 0.00 | 77 | 1008.1 |
| 20260505120503 | 15 | 177 | 1.6 | 4.8 | 0.00 | 0.00 | 0.00 | 78 | 1008.1 |
| 20260505120004 | 14 | 177 | 1.6 | 4.8 | 0.00 | 0.00 | 0.00 | 80 | 1008.1 |
| 20260505115504 | 14 | 177 | 0.0 | 4.8 | 0.00 | 0.00 | 0.00 | 81 | 1008.1 |
| 20260505115004 | 13 | 177 | 0.0 | 3.2 | 0.00 | 0.00 | 0.00 | 81 | 1007.9 |
| 20260505114503 | 13 | 177 | 0.0 | 3.2 | 0.00 | 0.00 | 0.00 | 82 | 1007.8 |
| 20260505114003 | 13 | 177 | 0.0 | 3.2 | 0.00 | 0.00 | 0.00 | 84 | 1008.1 |
| 20260505113503 | 13 | 0 | 0.0 | 0.0 | 0.00 | 0.00 | 0.00 | 84 | 1007.9 |
| 20260505113003 | 13 | 176 | 1.6 | 4.8 | 0.00 | 0.00 | 0.00 | 84 | 1007.8 |
| 20260505112504 | 13 | 176 | 1.6 | 4.8 | 0.00 | 0.00 | 0.00 | 83 | 1007.7 |
| 20260505112003 | 13 | 175 | 0.0 | 1.6 | 0.00 | 0.00 | 0.00 | 82 | 1007.7 |
| 20260505111503 | 13 | 175 | 0.0 | 3.2 | 0.00 | 0.00 | 0.00 | 82 | 1007.6 |
| 20260505111003 | 12 | 175 | 0.0 | 3.2 | 0.00 | 0.00 | 0.00 | 81 | 1007.7 |
| 20260505110504 | 12 | 176 | 0.0 | 3.2 | 0.00 | 0.00 | 0.00 | 82 | 1007.9 |
| 20260505102004 | 10 | 0 | 0.0 | 0.0 | 0.00 | 0.00 | 0.00 | 84 | 1007.8 |
| 20260505101503 | 10 | 0 | 0.0 | 0.0 | 0.00 | 0.00 | 0.00 | 83 | 1007.7 |
| 20260505101003 | 10 | 0 | 0.0 | 0.0 | 0.00 | 0.00 | 0.00 | 84 | 1007.6 |
| 20260505100503 | 10 | 0 | 0.0 | 0.0 | 0.00 | 0.00 | 0.00 | 84 | 1007.5 |
| 20260505100004 | 10 | 0 | 0.0 | 0.0 | 0.00 | 0.00 | 0.00 | 84 | 1007.6 |
| 20260505095503 | 10 | 0 | 0.0 | 0.0 | 0.00 | 0.00 | 0.00 | 83 | 1007.4 |
| 20260505095003 | 10 | 198 | 0.0 | 1.6 | 0.00 | 0.00 | 0.00 | 83 | 1007.2 |
| 20260505094504 | 10 | 198 | 0.0 | 1.6 | 0.00 | 0.00 | 0.00 | 83 | 1007.4 |
| 20260505094004 | 10 | 198 | 0.0 | 1.6 | 0.00 | 0.00 | 0.00 | 83 | 1007.2 |
| 20260505093503 | 10 | 198 | 0.0 | 1.6 | 0.00 | 0.00 | 0.00 | 82 | 1007.1 |
| 20260505093003 | 10 | 0 | 0.0 | 0.0 | 0.00 | 0.00 | 0.00 | 82 | 1007.1 |
| 20260505092503 | 10 | 0 | 0.0 | 0.0 | 0.00 | 0.00 | 0.00 | 81 | 1007.1 |
| 20260505092004 | 11 | 0 | 0.0 | 0.0 | 0.00 | 0.00 | 0.00 | 81 | 1007.1 |
| 20260505091504 | 11 | 0 | 0.0 | 0.0 | 0.00 | 0.00 | 0.00 | 80 | 1007.1 |
| 20260505091003 | 11 | 0 | 0.0 | 0.0 | 0.00 | 0.00 | 0.00 | 80 | 1007.0 |
| 20260505090503 | 11 | 0 | 0.0 | 0.0 | 0.00 | 0.00 | 0.00 | 80 | 1007.0 |
| 20260505090003 | 11 | 0 | 0.0 | 0.0 | 0.00 | 0.00 | 0.00 | 80 | 1007.0 |
| 20260505085504 | 11 | 0 | 0.0 | 0.0 | 0.00 | 0.00 | 0.00 | 80 | 1006.9 |
| 20260505085003 | 11 | 0 | 0.0 | 0.0 | 0.00 | 0.00 | 0.00 | 79 | 1006.9 |
| 20260505084503 | 11 | 0 | 0.0 | 0.0 | 0.00 | 0.00 | 0.00 | 79 | 1006.9 |
| 20260505084003 | 11 | 0 | 0.0 | 0.0 | 0.00 | 0.00 | 0.00 | 79 | 1006.9 |
| 20260505083504 | 11 | 0 | 0.0 | 0.0 | 0.00 | 0.00 | 0.00 | 79 | 1007.0 |
| 20260505083003 | 11 | 0 | 0.0 | 0.0 | 0.00 | 0.00 | 0.00 | 79 | 1007.0 |
| 20260505082503 | 11 | 0 | 0.0 | 0.0 | 0.00 | 0.00 | 0.00 | 79 | 1006.9 |
| 20260505082003 | 11 | 0 | 0.0 | 0.0 | 0.00 | 0.00 | 0.00 | 78 | 1007.0 |
| 20260505081503 | 11 | 0 | 0.0 | 0.0 | 0.00 | 0.00 | 0.00 | 78 | 1006.9 |
| 20260505081004 | 11 | 198 | 0.0 | 3.2 | 0.00 | 0.00 | 0.00 | 78 | 1007.0 |
| 20260505080504 | 11 | 199 | 0.0 | 4.8 | 0.00 | 0.00 | 0.00 | 78 | 1007.0 |
| 20260505080004 | 11 | 199 | 0.0 | 4.8 | 0.00 | 0.00 | 0.00 | 78 | 1007.0 |
| 20260505075503 | 11 | 0 | 0.0 | 0.0 | 0.00 | 0.00 | 0.00 | 77 | 1007.1 |
| 20260505075003 | 11 | 0 | 0.0 | 0.0 | 0.00 | 0.00 | 0.00 | 77 | 1007.1 |
| 20260505074503 | 11 | 0 | 0.0 | 0.0 | 0.00 | 0.00 | 0.00 | 77 | 1007.1 |
| 20260505074004 | 11 | 0 | 0.0 | 0.0 | 0.00 | 0.00 | 0.00 | 77 | 1007.1 |
| 20260505073503 | 11 | 0 | 0.0 | 0.0 | 0.00 | 0.00 | 0.00 | 76 | 1007.0 |
| 20260505073003 | 11 | 200 | 0.0 | 1.6 | 0.00 | 0.00 | 0.00 | 76 | 1006.9 |
| 20260505072503 | 11 | 200 | 0.0 | 1.6 | 0.00 | 0.00 | 0.00 | 76 | 1007.0 |
| 20260505072003 | 11 | 0 | 0.0 | 0.0 | 0.00 | 0.00 | 0.00 | 76 | 1007.0 |
| 20260505071503 | 11 | 0 | 0.0 | 0.0 | 0.00 | 0.00 | 0.00 | 75 | 1006.9 |
| 20260505071004 | 11 | 0 | 0.0 | 0.0 | 0.00 | 0.00 | 0.00 | 75 | 1006.8 |
| 20260505070504 | 11 | 0 | 0.0 | 0.0 | 0.00 | 0.00 | 0.00 | 75 | 1007.0 |
| 20260505070004 | 11 | 0 | 0.0 | 0.0 | 0.00 | 0.00 | 0.00 | 74 | 1007.0 |
| 20260505065503 | 12 | 0 | 0.0 | 0.0 | 0.00 | 0.00 | 0.00 | 74 | 1006.9 |
| 20260505065004 | 12 | 0 | 0.0 | 0.0 | 0.00 | 0.00 | 0.00 | 73 | 1006.9 |
| 20260505064503 | 12 | 0 | 0.0 | 0.0 | 0.00 | 0.00 | 0.00 | 72 | 1006.8 |
| 20260505064003 | 12 | 0 | 0.0 | 0.0 | 0.00 | 0.00 | 0.00 | 72 | 1006.9 |
| 20260505063503 | 12 | 0 | 0.0 | 0.0 | 0.00 | 0.00 | 0.00 | 72 | 1007.0 |
| 20260505063003 | 12 | 0 | 0.0 | 0.0 | 0.00 | 0.00 | 0.00 | 71 | 1007.0 |
| 20260505062504 | 12 | 0 | 0.0 | 0.0 | 0.00 | 0.00 | 0.00 | 71 | 1007.1 |
| 20260505062004 | 12 | 0 | 0.0 | 0.0 | 0.00 | 0.00 | 0.00 | 70 | 1007.1 |
| 20260505061503 | 12 | 0 | 0.0 | 0.0 | 0.00 | 0.00 | 0.00 | 70 | 1007.1 |
| 20260505061003 | 12 | 0 | 0.0 | 0.0 | 0.00 | 0.00 | 0.00 | 69 | 1007.1 |
| 20260505060503 | 12 | 0 | 0.0 | 0.0 | 0.00 | 0.00 | 0.00 | 68 | 1007.1 |
| 20260505060004 | 13 | 0 | 0.0 | 0.0 | 0.00 | 0.00 | 0.00 | 67 | 1007.1 |
| 20260505055503 | 13 | 0 | 0.0 | 0.0 | 0.00 | 0.00 | 0.00 | 66 | 1007.1 |
| 20260505055003 | 13 | 0 | 0.0 | 0.0 | 0.00 | 0.00 | 0.00 | 66 | 1007.1 |
| 20260505054504 | 13 | 0 | 0.0 | 0.0 | 0.00 | 0.00 | 0.00 | 65 | 1007.1 |
| 20260505054004 | 13 | 0 | 0.0 | 0.0 | 0.00 | 0.00 | 0.00 | 64 | 1007.2 |
| 20260505053503 | 13 | 0 | 0.0 | 0.0 | 0.00 | 0.00 | 0.00 | 64 | 1007.2 |
| 20260505053003 | 13 | 200 | 0.0 | 3.2 | 0.00 | 0.00 | 0.00 | 64 | 1007.2 |
| 20260505052503 | 13 | 200 | 0.0 | 3.2 | 0.00 | 0.00 | 0.00 | 63 | 1007.2 |
| 20260505052003 | 13 | 201 | 0.0 | 1.6 | 0.00 | 0.00 | 0.00 | 63 | 1007.3 |
| 20260505051504 | 13 | 200 | 0.0 | 1.6 | 0.00 | 0.00 | 0.00 | 62 | 1007.4 |
| 20260505051003 | 13 | 200 | 0.0 | 4.8 | 0.00 | 0.00 | 0.00 | 62 | 1007.4 |
| 20260505050503 | 13 | 200 | 0.0 | 4.8 | 0.00 | 0.00 | 0.00 | 62 | 1007.4 |
| 20260505041503 | 15 | 0 | 0.0 | 0.0 | 0.00 | 0.00 | 0.00 | 56 | 1007.5 |
| 20260505041003 | 15 | 0 | 0.0 | 0.0 | 0.00 | 0.00 | 0.00 | 55 | 1007.4 |
| 20260505040504 | 15 | 196 | 0.0 | 3.2 | 0.00 | 0.00 | 0.00 | 54 | 1007.5 |
| 20260505040004 | 15 | 196 | 0.0 | 3.2 | 0.00 | 0.00 | 0.00 | 54 | 1007.5 |
| 20260505035504 | 16 | 196 | 0.0 | 1.6 | 0.00 | 0.00 | 0.00 | 53 | 1007.5 |
| 20260505035004 | 16 | 196 | 0.0 | 1.6 | 0.00 | 0.00 | 0.00 | 52 | 1007.5 |
| 20260505034503 | 16 | 196 | 0.0 | 1.6 | 0.00 | 0.00 | 0.00 | 51 | 1007.5 |
| 20260505034003 | 16 | 196 | 0.0 | 3.2 | 0.00 | 0.00 | 0.00 | 51 | 1007.5 |
| 20260505033503 | 16 | 196 | 0.0 | 3.2 | 0.00 | 0.00 | 0.00 | 50 | 1007.5 |
| 20260505033004 | 16 | 188 | 1.6 | 8.0 | 0.00 | 0.00 | 0.00 | 49 | 1007.5 |
| 20260505032503 | 16 | 186 | 1.6 | 8.0 | 0.00 | 0.00 | 0.00 | 49 | 1007.5 |
| 20260505032004 | 16 | 187 | 3.2 | 8.0 | 0.00 | 0.00 | 0.00 | 49 | 1007.5 |
| 20260505031503 | 16 | 188 | 3.2 | 12.9 | 0.00 | 0.00 | 0.00 | 49 | 1007.5 |
| 20260505031003 | 16 | 187 | 3.2 | 12.9 | 0.00 | 0.00 | 0.00 | 49 | 1007.6 |
| 20260505030503 | 16 | 179 | 3.2 | 9.7 | 0.00 | 0.00 | 0.00 | 50 | 1007.6 |
| 20260505030003 | 15 | 175 | 1.6 | 9.7 | 0.00 | 0.00 | 0.00 | 52 | 1007.6 |
| 20260505025503 | 15 | 171 | 1.6 | 9.7 | 0.00 | 0.00 | 0.00 | 53 | 1007.6 |
| 20260505025003 | 15 | 173 | 1.6 | 8.0 | 0.00 | 0.00 | 0.00 | 54 | 1007.5 |
| 20260505024504 | 14 | 184 | 0.0 | 8.0 | 0.00 | 0.00 | 0.00 | 55 | 1007.6 |
| 20260505024003 | 14 | 194 | 0.0 | 3.2 | 0.00 | 0.00 | 0.00 | 56 | 1007.6 |
| 20260505023503 | 14 | 0 | 0.0 | 0.0 | 0.00 | 0.00 | 0.00 | 57 | 1007.5 |
| 20260505023003 | 15 | 0 | 0.0 | 0.0 | 0.00 | 0.00 | 0.00 | 56 | 1007.6 |
| 20260505022503 | 15 | 0 | 0.0 | 0.0 | 0.00 | 0.00 | 0.00 | 56 | 1007.6 |
| 20260505022004 | 15 | 0 | 0.0 | 0.0 | 0.00 | 0.00 | 0.00 | 55 | 1007.6 |
| 20260505021504 | 15 | 0 | 0.0 | 0.0 | 0.00 | 0.00 | 0.00 | 54 | 1007.7 |
| 20260505021003 | 15 | 0 | 0.0 | 0.0 | 0.00 | 0.00 | 0.00 | 53 | 1007.7 |
| 20260505020503 | 15 | 0 | 0.0 | 0.0 | 0.00 | 0.00 | 0.00 | 52 | 1007.6 |
| 20260505020003 | 15 | 0 | 0.0 | 0.0 | 0.00 | 0.00 | 0.00 | 52 | 1007.6 |
| 20260505015504 | 15 | 0 | 0.0 | 0.0 | 0.00 | 0.00 | 0.00 | 51 | 1007.5 |
| 20260505015004 | 16 | 0 | 0.0 | 0.0 | 0.00 | 0.00 | 0.00 | 50 | 1007.5 |
| 20260505014503 | 16 | 0 | 0.0 | 0.0 | 0.00 | 0.00 | 0.00 | 49 | 1007.4 |
| 20260505014003 | 16 | 0 | 0.0 | 0.0 | 0.00 | 0.00 | 0.00 | 49 | 1007.5 |
| 20260505013503 | 16 | 0 | 0.0 | 0.0 | 0.00 | 0.00 | 0.00 | 48 | 1007.4 |
| 20260505013004 | 16 | 0 | 0.0 | 0.0 | 0.00 | 0.00 | 0.00 | 47 | 1007.3 |
| 20260505012504 | 17 | 0 | 0.0 | 0.0 | 0.00 | 0.00 | 0.00 | 46 | 1007.3 |
| 20260505012003 | 17 | 0 | 0.0 | 0.0 | 0.00 | 0.00 | 0.00 | 45 | 1007.2 |
| 20260505011503 | 17 | 0 | 0.0 | 0.0 | 0.00 | 0.00 | 0.00 | 44 | 1007.1 |
| 20260505011003 | 17 | 0 | 0.0 | 0.0 | 0.00 | 0.00 | 0.00 | 43 | 1007.1 |
| 20260505010504 | 18 | 0 | 0.0 | 0.0 | 0.00 | 0.00 | 0.00 | 41 | 1007.0 |
| 20260505010004 | 18 | 196 | 0.0 | 1.6 | 0.00 | 0.00 | 0.00 | 41 | 1006.9 |
| 20260505005503 | 18 | 196 | 0.0 | 1.6 | 0.00 | 0.00 | 0.00 | 40 | 1006.9 |
| 20260505005004 | 18 | 0 | 0.0 | 0.0 | 0.00 | 0.00 | 0.00 | 38 | 1006.8 |
| 20260505004503 | 18 | 0 | 0.0 | 0.0 | 0.00 | 0.00 | 0.00 | 37 | 1006.7 |
| 20260505004004 | 19 | 200 | 0.0 | 4.8 | 0.00 | 0.00 | 0.00 | 36 | 1006.7 |
| 20260505003504 | 19 | 200 | 0.0 | 4.8 | 0.00 | 0.00 | 0.00 | 36 | 1006.6 |
| 20260505003003 | 20 | 200 | 0.0 | 3.2 | 0.00 | 0.00 | 0.00 | 35 | 1006.6 |
| 20260505002503 | 20 | 200 | 0.0 | 1.6 | 0.00 | 0.00 | 0.00 | 35 | 1006.5 |
| 20260505002003 | 20 | 200 | 0.0 | 8.0 | 0.00 | 0.00 | 0.00 | 34 | 1006.4 |
| 20260505001504 | 20 | 201 | 1.6 | 8.0 | 0.00 | 0.00 | 0.00 | 32 | 1006.3 |
| 20260505001003 | 20 | 199 | 1.6 | 11.3 | 0.00 | 0.00 | 0.00 | 31 | 1006.1 |
| 20260505000503 | 20 | 198 | 1.6 | 11.3 | 0.00 | 0.00 | 0.00 | 31 | 1006.1 |
| 20260505000004 | 20 | 206 | 3.2 | 11.3 | 0.00 | 0.00 | 0.00 | 30 | 1006.0 |
| 20260504235504 | 20 | 200 | 4.8 | 11.3 | 0.00 | 0.00 | 0.00 | 30 | 1005.9 |
| 20260504235003 | 21 | 196 | 4.8 | 12.9 | 0.00 | 0.00 | 0.00 | 30 | 1005.9 |
| 20260504234503 | 21 | 193 | 3.2 | 12.9 | 0.00 | 0.00 | 0.00 | 29 | 1005.8 |
| 20260504234003 | 21 | 184 | 4.8 | 12.9 | 0.00 | 0.00 | 0.00 | 30 | 1005.7 |
| 20260504233504 | 21 | 189 | 4.8 | 12.9 | 0.00 | 0.00 | 0.00 | 29 | 1005.6 |
| 20260504233003 | 21 | 192 | 4.8 | 12.9 | 0.00 | 0.00 | 0.00 | 28 | 1005.6 |
| 20260504232503 | 21 | 192 | 4.8 | 12.9 | 0.00 | 0.00 | 0.00 | 28 | 1005.6 |
| 20260504232003 | 21 | 194 | 3.2 | 11.3 | 0.00 | 0.00 | 0.00 | 28 | 1005.5 |
| 20260504231504 | 21 | 189 | 4.8 | 11.3 | 0.00 | 0.00 | 0.00 | 27 | 1005.5 |
| 20260504231004 | 21 | 189 | 4.8 | 19.3 | 0.00 | 0.00 | 0.00 | 28 | 1005.4 |
| 20260504230503 | 22 | 195 | 6.4 | 19.3 | 0.00 | 0.00 | 0.00 | 28 | 1005.3 |
| 20260504230003 | 22 | 195 | 6.4 | 19.3 | 0.00 | 0.00 | 0.00 | 27 | 1005.3 |
| 20260504225503 | 22 | 200 | 6.4 | 19.3 | 0.00 | 0.00 | 0.00 | 27 | 1005.3 |
| 20260504225003 | 22 | 197 | 4.8 | 17.7 | 0.00 | 0.00 | 0.00 | 28 | 1005.4 |
| 20260504224503 | 22 | 183 | 3.2 | 17.7 | 0.00 | 0.00 | 0.00 | 27 | 1005.3 |
| 20260504224004 | 22 | 181 | 1.6 | 9.7 | 0.00 | 0.00 | 0.00 | 27 | 1005.3 |
| 20260504223503 | 22 | 196 | 4.8 | 17.7 | 0.00 | 0.00 | 0.00 | 27 | 1005.3 |
| 20260504223003 | 22 | 210 | 4.8 | 17.7 | 0.00 | 0.00 | 0.00 | 26 | 1005.4 |
| 20260504222504 | 22 | 189 | 4.8 | 19.3 | 0.00 | 0.00 | 0.00 | 28 | 1005.4 |
| 20260504222004 | 22 | 194 | 6.4 | 19.3 | 0.00 | 0.00 | 0.00 | 26 | 1005.4 |
| 20260504221503 | 22 | 204 | 4.8 | 12.9 | 0.00 | 0.00 | 0.00 | 26 | 1005.4 |
| 20260504221003 | 22 | 192 | 6.4 | 17.7 | 0.00 | 0.00 | 0.00 | 27 | 1005.4 |
| 20260504220503 | 22 | 195 | 4.8 | 17.7 | 0.00 | 0.00 | 0.00 | 26 | 1005.5 |
| 20260504220004 | 22 | 193 | 4.8 | 17.7 | 0.00 | 0.00 | 0.00 | 26 | 1005.6 |
| 20260504215503 | 22 | 192 | 6.4 | 17.7 | 0.00 | 0.00 | 0.00 | 27 | 1005.6 |
| 20260504215003 | 22 | 185 | 4.8 | 16.1 | 0.00 | 0.00 | 0.00 | 26 | 1005.6 |
| 20260504214503 | 22 | 185 | 6.4 | 17.7 | 0.00 | 0.00 | 0.00 | 26 | 1005.7 |
| 20260504214004 | 22 | 181 | 8.0 | 27.4 | 0.00 | 0.00 | 0.00 | 26 | 1005.8 |
| 20260504213504 | 22 | 185 | 8.0 | 27.4 | 0.00 | 0.00 | 0.00 | 26 | 1005.8 |
| 20260504213003 | 22 | 197 | 4.8 | 22.5 | 0.00 | 0.00 | 0.00 | 25 | 1005.8 |
| 20260504212503 | 22 | 181 | 4.8 | 12.9 | 0.00 | 0.00 | 0.00 | 25 | 1005.8 |
| 20260504212003 | 23 | 185 | 4.8 | 17.7 | 0.00 | 0.00 | 0.00 | 26 | 1005.8 |
| 20260504211503 | 23 | 188 | 9.7 | 22.5 | 0.00 | 0.00 | 0.00 | 26 | 1005.8 |
| 20260504211003 | 23 | 184 | 9.7 | 22.5 | 0.00 | 0.00 | 0.00 | 25 | 1005.8 |
| 20260504210503 | 23 | 183 | 6.4 | 22.5 | 0.00 | 0.00 | 0.00 | 26 | 1005.8 |